Year,Month,Day,Hour,Minute,Value (Times are PST for temperature in C)
2016,04,25,00,00,8.50
2016,04,25,00,01,8.40
2016,04,25,00,02,8.40
2016,04,25,00,03,8.40
2016,04,25,00,04,8.40
2016,04,25,00,05,8.40
2016,04,25,00,06,8.40
2016,04,25,00,07,8.40
2016,04,25,00,08,8.40
2016,04,25,00,09,8.40
2016,04,25,00,10,8.40
2016,04,25,00,11,8.40
2016,04,25,00,12,8.40
2016,04,25,00,43,8.40
2016,04,25,00,44,8.40
2016,04,25,00,45,8.40
2016,04,25,00,46,8.40
2016,04,25,00,47,8.40
2016,04,25,00,48,8.40
2016,04,25,00,49,8.50
2016,04,25,00,50,8.50
2016,04,25,00,51,8.50
2016,04,25,00,52,8.50
2016,04,25,00,53,8.50
2016,04,25,00,54,8.50
2016,04,25,00,55,8.50
2016,04,25,00,56,8.50
2016,04,25,00,57,8.50
2016,04,25,00,58,8.50
2016,04,25,00,59,8.50
2016,04,25,01,00,8.50
2016,04,25,01,01,8.50
2016,04,25,01,02,8.50
2016,04,25,01,03,8.50
2016,04,25,01,04,8.50
2016,04,25,01,05,8.50
2016,04,25,01,06,8.50
2016,04,25,01,07,8.50
2016,04,25,01,08,8.50
2016,04,25,01,09,8.50
2016,04,25,01,10,8.50
2016,04,25,01,11,8.60
2016,04,25,01,12,8.60
2016,04,25,01,13,8.60
2016,04,25,01,14,8.60
2016,04,25,01,15,8.60
2016,04,25,01,16,8.60
2016,04,25,01,17,8.60
2016,04,25,01,18,8.60
2016,04,25,01,19,8.60
2016,04,25,01,20,8.60
2016,04,25,01,21,8.60
2016,04,25,01,22,8.60
2016,04,25,01,23,8.60
2016,04,25,01,24,8.60
2016,04,25,01,25,8.60
2016,04,25,01,26,8.70
2016,04,25,01,27,8.70
2016,04,25,01,28,8.70
2016,04,25,01,29,8.70
2016,04,25,01,30,8.70
2016,04,25,01,31,8.70
2016,04,25,01,32,8.70
2016,04,25,01,33,8.70
2016,04,25,01,34,8.70
2016,04,25,01,35,8.70
2016,04,25,01,36,8.70
2016,04,25,01,37,8.70
2016,04,25,01,38,8.70
2016,04,25,01,39,8.70
2016,04,25,01,40,8.70
2016,04,25,01,41,8.70
2016,04,25,01,42,8.70
2016,04,25,01,43,8.70
2016,04,25,01,44,8.70
2016,04,25,01,45,8.70
2016,04,25,01,46,8.70
2016,04,25,01,47,8.70
2016,04,25,01,48,8.70
2016,04,25,01,49,8.70
2016,04,25,01,50,8.70
2016,04,25,01,51,8.70
2016,04,25,01,52,8.70
2016,04,25,01,53,8.60
2016,04,25,01,54,8.60
2016,04,25,01,55,8.60
2016,04,25,01,56,8.60
2016,04,25,01,57,8.50
2016,04,25,01,58,8.50
2016,04,25,01,59,8.40
2016,04,25,02,00,8.40
2016,04,25,02,01,8.40
2016,04,25,02,02,8.40
2016,04,25,02,03,8.30
2016,04,25,02,04,8.30
2016,04,25,02,05,8.30
2016,04,25,02,06,8.30
2016,04,25,02,07,8.30
2016,04,25,02,08,8.20
2016,04,25,02,09,8.20
2016,04,25,02,10,8.20
2016,04,25,02,11,8.20
2016,04,25,02,12,8.20
2016,04,25,02,13,8.20
2016,04,25,02,14,8.10
2016,04,25,02,15,8.10
2016,04,25,02,16,8.10
2016,04,25,02,17,8.10
2016,04,25,02,18,8.10
2016,04,25,02,19,8.10
2016,04,25,02,20,8.00
2016,04,25,02,21,8.00
2016,04,25,02,22,8.00
2016,04,25,02,23,8.00
2016,04,25,02,24,7.90
2016,04,25,02,25,7.90
2016,04,25,02,26,7.90
2016,04,25,02,27,7.90
2016,04,25,02,28,7.80
2016,04,25,02,29,7.80
2016,04,25,02,30,7.80
2016,04,25,02,31,7.80
2016,04,25,02,32,7.80
2016,04,25,02,33,7.80
2016,04,25,02,34,7.80
2016,04,25,02,35,7.80
2016,04,25,02,36,7.70
2016,04,25,02,37,7.70
2016,04,25,02,38,7.70
2016,04,25,02,39,7.70
2016,04,25,02,40,7.60
2016,04,25,02,41,7.60
2016,04,25,02,42,7.60
2016,04,25,02,43,7.60
2016,04,25,02,44,7.60
2016,04,25,02,45,7.50
2016,04,25,02,46,7.50
2016,04,25,02,47,7.40
2016,04,25,02,48,7.40
2016,04,25,02,49,7.40
2016,04,25,02,50,7.40
2016,04,25,02,51,7.30
2016,04,25,02,52,7.30
2016,04,25,02,53,7.30
2016,04,25,02,54,7.30
2016,04,25,02,55,7.30
2016,04,25,02,56,7.20
2016,04,25,02,57,7.20
2016,04,25,02,58,7.20
2016,04,25,02,59,7.20
2016,04,25,03,00,7.20
2016,04,25,03,01,7.10
2016,04,25,03,02,7.10
2016,04,25,03,03,7.10
2016,04,25,03,04,7.10
2016,04,25,03,05,7.10
2016,04,25,03,06,7.10
2016,04,25,03,07,7.10
2016,04,25,03,08,7.10
2016,04,25,03,09,7.00
2016,04,25,03,10,7.00
2016,04,25,03,11,7.00
2016,04,25,03,12,7.00
2016,04,25,03,13,7.00
2016,04,25,03,14,7.00
2016,04,25,03,15,7.00
2016,04,25,03,16,7.00
2016,04,25,03,17,7.00
2016,04,25,03,18,7.00
2016,04,25,03,19,6.90
2016,04,25,03,20,6.90
2016,04,25,03,21,6.90
2016,04,25,03,22,6.90
2016,04,25,03,23,6.90
2016,04,25,03,24,6.90
2016,04,25,03,25,6.90
2016,04,25,03,26,6.90
2016,04,25,03,27,6.90
2016,04,25,03,28,6.90
2016,04,25,03,29,6.90
2016,04,25,03,30,6.90
2016,04,25,03,31,6.90
2016,04,25,03,32,6.90
2016,04,25,03,33,6.90
2016,04,25,03,34,6.90
2016,04,25,03,35,6.90
2016,04,25,03,36,6.90
2016,04,25,03,37,6.90
2016,04,25,03,38,6.90
2016,04,25,03,39,6.90
2016,04,25,03,40,6.90
2016,04,25,03,41,6.90
2016,04,25,03,42,6.90
2016,04,25,03,43,6.90
2016,04,25,03,44,6.80
2016,04,25,03,45,6.80
2016,04,25,03,46,6.80
2016,04,25,03,47,6.80
2016,04,25,03,48,6.80
2016,04,25,03,49,6.80
2016,04,25,03,50,6.80
2016,04,25,03,51,6.80
2016,04,25,03,52,6.80
2016,04,25,03,53,6.80
2016,04,25,03,54,6.80
2016,04,25,03,55,6.80
2016,04,25,03,56,6.80
2016,04,25,03,57,6.80
2016,04,25,03,58,6.80
2016,04,25,03,59,6.70
2016,04,25,04,00,6.70
2016,04,25,04,01,6.70
2016,04,25,04,02,6.70
2016,04,25,04,16,6.20
2016,04,25,04,17,6.20
2016,04,25,04,18,6.20
2016,04,25,04,19,6.20
2016,04,25,04,20,6.20
2016,04,25,04,21,6.10
2016,04,25,04,22,6.10
2016,04,25,04,23,6.10
2016,04,25,04,24,6.10
2016,04,25,04,25,6.00
2016,04,25,04,26,5.90
2016,04,25,04,27,5.90
2016,04,25,04,28,5.90
2016,04,25,04,29,5.90
2016,04,25,04,30,5.80
2016,04,25,04,31,5.80
2016,04,25,04,32,5.80
2016,04,25,04,33,5.80
2016,04,25,04,34,5.80
2016,04,25,04,35,5.70
2016,04,25,04,36,5.70
2016,04,25,04,37,5.70
2016,04,25,04,38,5.60
2016,04,25,04,39,5.60
2016,04,25,04,40,5.60
2016,04,25,04,41,5.60
2016,04,25,04,42,5.50
2016,04,25,04,43,5.50
2016,04,25,04,44,5.50
2016,04,25,04,45,5.50
2016,04,25,04,46,5.50
2016,04,25,04,47,5.40
2016,04,25,04,48,5.40
2016,04,25,04,49,5.40
2016,04,25,04,50,5.40
2016,04,25,04,51,5.40
2016,04,25,04,52,5.40
2016,04,25,04,53,5.30
2016,04,25,04,54,5.30
2016,04,25,04,55,5.30
2016,04,25,04,56,5.30
2016,04,25,04,57,5.30
2016,04,25,04,58,5.30
2016,04,25,04,59,5.30
2016,04,25,05,00,5.20
2016,04,25,05,01,5.20
2016,04,25,05,02,5.20
2016,04,25,05,03,5.20
2016,04,25,05,04,5.20
2016,04,25,05,05,5.20
2016,04,25,05,06,5.10
2016,04,25,05,07,5.10
2016,04,25,05,08,5.10
2016,04,25,05,09,5.10
2016,04,25,05,10,5.10
2016,04,25,05,11,5.10
2016,04,25,05,12,5.00
2016,04,25,05,13,5.00
2016,04,25,05,14,5.00
2016,04,25,05,15,5.00
2016,04,25,05,16,5.00
2016,04,25,05,17,4.90
2016,04,25,05,18,4.90
2016,04,25,05,19,4.90
2016,04,25,05,20,4.90
2016,04,25,05,21,4.90
2016,04,25,05,22,4.90
2016,04,25,05,23,4.90
2016,04,25,05,24,4.90
2016,04,25,05,25,4.90
2016,04,25,05,26,4.80
2016,04,25,05,27,4.80
2016,04,25,05,28,4.80
2016,04,25,05,29,4.80
2016,04,25,05,30,4.80
2016,04,25,05,31,4.80
2016,04,25,05,32,4.80
2016,04,25,05,33,4.80
2016,04,25,05,34,4.80
2016,04,25,05,35,4.80
2016,04,25,05,36,4.80
2016,04,25,05,37,4.80
2016,04,25,05,38,4.80
2016,04,25,05,39,4.80
2016,04,25,05,40,4.80
2016,04,25,05,41,4.80
2016,04,25,05,42,4.80
2016,04,25,05,43,4.70
2016,04,25,05,44,4.70
2016,04,25,05,45,4.70
2016,04,25,05,46,4.70
2016,04,25,05,47,4.70
2016,04,25,05,48,4.70
2016,04,25,05,49,4.70
2016,04,25,05,50,4.70
2016,04,25,05,51,4.70
2016,04,25,05,52,4.70
2016,04,25,05,53,4.70
2016,04,25,05,54,4.70
2016,04,25,05,55,4.70
2016,04,25,05,56,4.70
2016,04,25,05,57,4.70
2016,04,25,05,58,4.70
2016,04,25,05,59,4.70
2016,04,25,06,00,4.70
2016,04,25,06,01,4.70
2016,04,25,06,02,4.70
2016,04,25,06,03,4.70
2016,04,25,06,04,4.70
2016,04,25,06,05,4.70
2016,04,25,06,06,4.70
2016,04,25,06,07,4.70
2016,04,25,06,08,4.70
2016,04,25,06,09,4.70
2016,04,25,06,10,4.70
2016,04,25,06,11,4.70
2016,04,25,06,12,4.70
2016,04,25,06,13,4.70
2016,04,25,06,14,4.70
2016,04,25,06,15,4.70
2016,04,25,06,16,4.70
2016,04,25,06,17,4.70
2016,04,25,06,18,4.70
2016,04,25,06,19,4.70
2016,04,25,06,20,4.80
2016,04,25,06,21,4.70
2016,04,25,06,22,4.80
2016,04,25,06,23,4.80
2016,04,25,06,24,4.70
2016,04,25,06,25,4.70
2016,04,25,06,26,4.70
2016,04,25,06,27,4.70
2016,04,25,06,28,4.70
2016,04,25,06,29,4.70
2016,04,25,06,30,4.70
2016,04,25,06,31,4.70
2016,04,25,06,32,4.70
2016,04,25,06,33,4.70
2016,04,25,06,34,4.70
2016,04,25,06,35,4.80
2016,04,25,06,36,4.80
2016,04,25,06,37,4.80
2016,04,25,06,38,4.90
2016,04,25,06,39,4.90
2016,04,25,06,40,5.00
2016,04,25,06,41,5.00
2016,04,25,06,42,5.10
2016,04,25,06,43,5.10
2016,04,25,06,44,5.20
2016,04,25,06,45,5.20
2016,04,25,06,46,5.20
2016,04,25,06,47,5.30
2016,04,25,06,48,5.30
2016,04,25,06,49,5.30
2016,04,25,06,50,5.40
2016,04,25,06,51,5.40
2016,04,25,06,52,5.40
2016,04,25,06,53,5.40
2016,04,25,06,54,5.40
2016,04,25,06,55,5.40
2016,04,25,06,56,5.40
2016,04,25,06,57,5.40
2016,04,25,06,58,5.40
2016,04,25,06,59,5.40
2016,04,25,07,00,5.40
2016,04,25,07,01,5.40
2016,04,25,07,02,5.40
2016,04,25,07,03,5.50
2016,04,25,07,04,5.50
2016,04,25,07,05,5.60
2016,04,25,07,06,5.60
2016,04,25,07,07,5.60
2016,04,25,07,08,5.70
2016,04,25,07,09,5.70
2016,04,25,07,10,5.70
2016,04,25,07,11,5.70
2016,04,25,07,12,5.70
2016,04,25,07,13,5.70
2016,04,25,07,14,5.70
2016,04,25,07,15,5.70
2016,04,25,07,16,5.70
2016,04,25,07,17,5.80
2016,04,25,07,18,5.80
2016,04,25,07,19,5.80
2016,04,25,07,20,5.80
2016,04,25,07,21,5.80
2016,04,25,07,22,5.80
2016,04,25,07,23,5.80
2016,04,25,07,24,5.90
2016,04,25,07,25,5.90
2016,04,25,07,26,6.00
2016,04,25,07,27,6.00
2016,04,25,07,28,6.10
2016,04,25,07,29,6.20
2016,04,25,07,30,6.30
2016,04,25,07,31,6.30
2016,04,25,07,32,6.40
2016,04,25,07,33,6.50
2016,04,25,07,34,6.60
2016,04,25,07,35,6.60
2016,04,25,07,36,6.70
2016,04,25,07,37,6.80
2016,04,25,07,38,6.90
2016,04,25,07,39,7.00
2016,04,25,07,40,7.10
2016,04,25,07,41,7.30
2016,04,25,07,42,7.40
2016,04,25,07,43,7.50
2016,04,25,07,44,7.60
2016,04,25,07,45,7.70
2016,04,25,07,46,7.80
2016,04,25,07,47,8.00
2016,04,25,07,48,8.10
2016,04,25,07,49,8.20
2016,04,25,07,50,8.30
2016,04,25,07,51,8.40
2016,04,25,07,52,8.50
2016,04,25,07,53,8.60
2016,04,25,07,54,8.70
2016,04,25,07,55,8.80
2016,04,25,07,56,8.90
2016,04,25,07,57,9.00
2016,04,25,07,58,9.10
2016,04,25,07,59,9.20
2016,04,25,08,00,9.20
2016,04,25,08,01,9.30
2016,04,25,08,02,9.30
2016,04,25,08,03,9.30
2016,04,25,08,04,9.40
2016,04,25,08,05,9.40
2016,04,25,08,06,9.50
2016,04,25,08,07,9.60
2016,04,25,08,08,9.70
2016,04,25,08,09,9.70
2016,04,25,08,10,9.80
2016,04,25,08,11,9.80
2016,04,25,08,12,9.90
2016,04,25,08,13,10.00
2016,04,25,08,14,10.10
2016,04,25,08,15,10.10
2016,04,25,08,16,10.20
2016,04,25,08,17,10.30
2016,04,25,08,18,10.30
2016,04,25,08,19,10.30
2016,04,25,08,20,10.30
2016,04,25,08,21,10.30
2016,04,25,08,22,10.30
2016,04,25,08,23,10.30
2016,04,25,08,24,10.40
2016,04,25,08,25,10.40
2016,04,25,08,26,10.30
2016,04,25,08,27,10.30
2016,04,25,08,28,10.40
2016,04,25,08,29,10.40
2016,04,25,08,30,10.40
2016,04,25,08,31,10.40
2016,04,25,08,32,10.40
2016,04,25,08,33,10.50
2016,04,25,08,34,10.50
2016,04,25,08,35,10.50
2016,04,25,08,36,10.40
2016,04,25,08,37,10.30
2016,04,25,08,38,10.20
2016,04,25,08,39,10.20
2016,04,25,08,40,10.10
2016,04,25,08,41,10.10
2016,04,25,08,42,10.00
2016,04,25,08,43,10.00
2016,04,25,08,44,9.90
2016,04,25,08,45,9.90
2016,04,25,08,46,10.00
2016,04,25,08,47,10.00
2016,04,25,08,48,10.00
2016,04,25,08,49,10.00
2016,04,25,08,50,10.10
2016,04,25,08,51,10.10
2016,04,25,08,52,10.10
2016,04,25,08,53,10.20
2016,04,25,08,54,10.20
2016,04,25,08,55,10.30
2016,04,25,08,56,10.40
2016,04,25,08,57,10.50
2016,04,25,08,58,10.50
2016,04,25,08,59,10.70
2016,04,25,09,00,10.70
2016,04,25,09,01,10.80
2016,04,25,09,02,10.90
2016,04,25,09,03,10.90
2016,04,25,09,04,10.90
2016,04,25,09,05,10.90
2016,04,25,09,06,10.90
2016,04,25,09,07,10.90
2016,04,25,09,08,10.90
2016,04,25,09,09,11.00
2016,04,25,09,10,11.00
2016,04,25,09,11,11.00
2016,04,25,09,12,11.00
2016,04,25,09,13,10.90
2016,04,25,09,14,10.90
2016,04,25,09,15,10.90
2016,04,25,09,16,10.80
2016,04,25,09,17,10.90
2016,04,25,09,18,10.90
2016,04,25,09,19,11.00
2016,04,25,09,20,11.00
2016,04,25,09,21,11.10
2016,04,25,09,22,11.20
2016,04,25,09,23,11.30
2016,04,25,09,24,11.40
2016,04,25,09,25,11.50
2016,04,25,09,26,11.60
2016,04,25,09,27,11.60
2016,04,25,09,28,11.60
2016,04,25,09,29,11.50
2016,04,25,09,30,11.50
2016,04,25,09,31,11.40
2016,04,25,09,32,11.30
2016,04,25,09,33,11.30
2016,04,25,09,34,11.20
2016,04,25,09,35,11.20
2016,04,25,09,36,11.20
2016,04,25,09,37,11.20
2016,04,25,09,38,11.20
2016,04,25,09,39,11.20
2016,04,25,09,40,11.30
2016,04,25,09,41,11.30
2016,04,25,09,42,11.40
2016,04,25,09,43,11.50
2016,04,25,09,44,11.60
2016,04,25,09,45,11.70
2016,04,25,09,46,11.80
2016,04,25,09,47,11.80
2016,04,25,09,48,11.80
2016,04,25,09,49,11.80
2016,04,25,09,50,11.80
2016,04,25,09,51,11.80
2016,04,25,09,52,11.90
2016,04,25,09,53,11.90
2016,04,25,09,54,11.90
2016,04,25,09,55,12.00
2016,04,25,09,56,12.00
2016,04,25,09,57,12.10
2016,04,25,09,58,12.10
2016,04,25,09,59,12.20
2016,04,25,10,00,12.20
2016,04,25,10,01,12.20
2016,04,25,10,02,12.20
2016,04,25,10,03,12.20
2016,04,25,10,04,12.20
2016,04,25,10,05,12.20
2016,04,25,10,06,12.20
2016,04,25,10,07,12.30
2016,04,25,10,08,12.30
2016,04,25,10,09,12.30
2016,04,25,10,10,12.30
2016,04,25,10,11,12.20
2016,04,25,10,12,12.10
2016,04,25,10,13,12.00
2016,04,25,10,14,12.00
2016,04,25,10,15,11.80
2016,04,25,10,16,11.80
2016,04,25,10,17,11.80
2016,04,25,10,18,11.80
2016,04,25,10,19,11.80
2016,04,25,10,20,11.80
2016,04,25,10,21,11.90
2016,04,25,10,22,11.90
2016,04,25,10,23,11.90
2016,04,25,10,24,11.90
2016,04,25,10,25,12.00
2016,04,25,10,26,12.00
2016,04,25,10,27,12.00
2016,04,25,10,28,12.10
2016,04,25,10,29,12.20
2016,04,25,10,30,12.20
2016,04,25,10,31,12.30
2016,04,25,10,32,12.30
2016,04,25,10,33,12.30
2016,04,25,10,34,12.30
2016,04,25,10,35,12.30
2016,04,25,10,36,12.20
2016,04,25,10,37,12.20
2016,04,25,10,38,12.20
2016,04,25,10,39,12.30
2016,04,25,10,40,12.20
2016,04,25,10,41,12.20
2016,04,25,10,42,12.20
2016,04,25,10,43,12.20
2016,04,25,10,44,12.30
2016,04,25,10,45,12.30
2016,04,25,10,46,12.30
2016,04,25,10,47,12.10
2016,04,25,10,48,12.10
2016,04,25,10,49,12.10
2016,04,25,10,50,12.10
2016,04,25,10,51,12.20
2016,04,25,10,52,12.30
2016,04,25,10,53,12.30
2016,04,25,10,54,12.40
2016,04,25,10,55,12.50
2016,04,25,10,56,12.60
2016,04,25,10,57,12.60
2016,04,25,10,58,12.60
2016,04,25,10,59,12.60
2016,04,25,11,00,12.60
2016,04,25,11,01,12.70
2016,04,25,11,02,12.70
2016,04,25,11,03,12.70
2016,04,25,11,04,12.50
2016,04,25,11,05,12.40
2016,04,25,11,06,12.40
2016,04,25,11,07,12.30
2016,04,25,11,08,12.20
2016,04,25,11,09,12.10
2016,04,25,11,10,12.10
2016,04,25,11,11,12.10
2016,04,25,11,12,12.20
2016,04,25,11,13,12.40
2016,04,25,11,14,12.50
2016,04,25,11,15,12.60
2016,04,25,11,16,12.60
2016,04,25,11,17,12.60
2016,04,25,11,18,12.60
2016,04,25,11,19,12.60
2016,04,25,11,20,12.70
2016,04,25,11,21,12.80
2016,04,25,11,22,13.00
2016,04,25,11,23,13.10
2016,04,25,11,24,13.20
2016,04,25,11,25,13.20
2016,04,25,11,26,13.10
2016,04,25,11,27,13.00
2016,04,25,11,28,13.00
2016,04,25,11,29,13.00
2016,04,25,11,30,12.90
2016,04,25,11,31,12.90
2016,04,25,11,32,13.00
2016,04,25,11,33,13.00
2016,04,25,11,34,13.10
2016,04,25,11,35,13.00
2016,04,25,11,36,13.00
2016,04,25,11,37,13.10
2016,04,25,11,38,13.10
2016,04,25,11,39,13.10
2016,04,25,11,40,13.10
2016,04,25,11,41,13.10
2016,04,25,11,42,13.00
2016,04,25,11,43,12.90
2016,04,25,11,44,12.70
2016,04,25,11,45,12.60
2016,04,25,11,46,12.40
2016,04,25,11,47,12.40
2016,04,25,11,48,12.50
2016,04,25,11,49,12.50
2016,04,25,11,50,12.50
2016,04,25,11,51,12.60
2016,04,25,11,52,12.60
2016,04,25,11,53,12.70
2016,04,25,11,54,12.80
2016,04,25,11,55,13.00
2016,04,25,11,56,13.00
2016,04,25,11,57,13.00
2016,04,25,11,58,13.00
2016,04,25,11,59,13.00
2016,04,25,12,00,13.00
2016,04,25,12,01,13.10
2016,04,25,12,02,13.10
2016,04,25,12,03,13.20
2016,04,25,12,04,13.10
2016,04,25,12,05,13.10
2016,04,25,12,06,13.10
2016,04,25,12,07,13.20
2016,04,25,12,08,13.20
2016,04,25,12,09,13.30
2016,04,25,12,10,13.20
2016,04,25,12,11,13.30
2016,04,25,12,12,13.30
2016,04,25,12,13,13.30
2016,04,25,12,14,13.30
2016,04,25,12,15,13.20
2016,04,25,12,16,13.20
2016,04,25,12,17,13.20
2016,04,25,12,18,13.20
2016,04,25,12,19,13.20
2016,04,25,12,20,13.30
2016,04,25,12,21,13.20
2016,04,25,12,22,13.20
2016,04,25,12,23,13.20
2016,04,25,12,24,13.20
2016,04,25,12,25,13.20
2016,04,25,12,26,13.20
2016,04,25,12,27,13.20
2016,04,25,12,28,13.20
2016,04,25,12,29,13.20
2016,04,25,12,30,13.20
2016,04,25,12,31,13.10
2016,04,25,12,32,13.00
2016,04,25,12,33,12.90
2016,04,25,12,34,13.00
2016,04,25,12,35,13.20
2016,04,25,12,36,13.30
2016,04,25,12,37,13.30
2016,04,25,12,38,13.30
2016,04,25,12,39,13.30
2016,04,25,12,40,13.30
2016,04,25,12,41,13.40
2016,04,25,12,42,13.40
2016,04,25,12,43,13.50
2016,04,25,12,44,13.50
2016,04,25,12,45,13.50
2016,04,25,12,46,13.50
2016,04,25,12,47,13.50
2016,04,25,12,48,13.40
2016,04,25,12,49,13.30
2016,04,25,12,50,13.20
2016,04,25,12,51,13.20
2016,04,25,12,52,13.20
2016,04,25,12,53,13.10
2016,04,25,12,54,13.10
2016,04,25,12,55,13.00
2016,04,25,12,56,12.90
2016,04,25,12,57,12.90
2016,04,25,12,58,13.00
2016,04,25,12,59,13.00
2016,04,25,13,00,13.10
2016,04,25,13,01,13.00
2016,04,25,13,02,12.90
2016,04,25,13,03,12.90
2016,04,25,13,04,12.90
2016,04,25,13,05,12.90
2016,04,25,13,06,12.90
2016,04,25,13,07,12.90
2016,04,25,13,08,12.90
2016,04,25,13,09,12.90
2016,04,25,13,10,12.80
2016,04,25,13,11,12.80
2016,04,25,13,12,12.80
2016,04,25,13,13,12.80
2016,04,25,13,14,12.90
2016,04,25,13,15,13.10
2016,04,25,13,16,13.20
2016,04,25,13,17,13.30
2016,04,25,13,18,13.30
2016,04,25,13,19,13.40
2016,04,25,13,20,13.40
2016,04,25,13,21,13.50
2016,04,25,13,22,13.60
2016,04,25,13,23,13.60
2016,04,25,13,24,13.60
2016,04,25,13,25,13.60
2016,04,25,13,26,13.70
2016,04,25,13,27,13.80
2016,04,25,13,28,13.80
2016,04,25,13,29,13.80
2016,04,25,13,30,13.80
2016,04,25,13,31,13.80
2016,04,25,13,32,13.80
2016,04,25,13,33,13.80
2016,04,25,13,34,13.80
2016,04,25,13,35,13.80
2016,04,25,13,36,13.70
2016,04,25,13,37,13.70
2016,04,25,13,38,13.70
2016,04,25,13,39,13.70
2016,04,25,13,40,13.70
2016,04,25,13,41,13.80
2016,04,25,13,42,13.80
2016,04,25,13,43,13.90
2016,04,25,13,44,13.90
2016,04,25,13,45,14.00
2016,04,25,13,46,14.00
2016,04,25,13,47,14.00
2016,04,25,13,48,13.90
2016,04,25,13,49,13.80
2016,04,25,13,50,13.80
2016,04,25,13,51,13.90
2016,04,25,13,52,14.00
2016,04,25,13,53,14.00
2016,04,25,13,54,14.10
2016,04,25,13,55,14.10
2016,04,25,13,56,14.10
2016,04,25,13,57,14.10
2016,04,25,13,58,14.20
2016,04,25,13,59,14.20
2016,04,25,14,00,14.20
2016,04,25,14,01,14.20
2016,04,25,14,02,14.20
2016,04,25,14,03,14.10
2016,04,25,14,04,14.00
2016,04,25,14,05,13.90
2016,04,25,14,06,13.90
2016,04,25,14,07,13.90
2016,04,25,14,08,13.90
2016,04,25,14,09,13.90
2016,04,25,14,10,13.90
2016,04,25,14,11,13.90
2016,04,25,14,12,13.90
2016,04,25,14,13,14.00
2016,04,25,14,14,14.00
2016,04,25,14,15,14.00
2016,04,25,14,16,13.90
2016,04,25,14,17,13.70
2016,04,25,14,18,13.70
2016,04,25,14,19,13.70
2016,04,25,14,20,13.70
2016,04,25,14,21,13.70
2016,04,25,14,22,13.60
2016,04,25,14,23,13.50
2016,04,25,14,24,13.40
2016,04,25,14,25,13.40
2016,04,25,14,26,13.30
2016,04,25,14,27,13.40
2016,04,25,14,28,13.40
2016,04,25,14,29,13.50
2016,04,25,14,30,13.60
2016,04,25,14,31,13.60
2016,04,25,14,32,13.60
2016,04,25,14,33,13.70
2016,04,25,14,34,13.70
2016,04,25,14,35,13.70
2016,04,25,14,36,13.70
2016,04,25,14,37,13.70
2016,04,25,14,38,13.60
2016,04,25,14,39,13.60
2016,04,25,14,40,13.60
2016,04,25,14,41,13.70
2016,04,25,14,42,13.80
2016,04,25,14,43,13.90
2016,04,25,14,44,14.00
2016,04,25,14,45,14.00
2016,04,25,14,46,14.00
2016,04,25,14,47,14.00
2016,04,25,14,48,14.00
2016,04,25,14,49,13.90
2016,04,25,14,50,13.80
2016,04,25,14,51,13.80
2016,04,25,14,52,13.80
2016,04,25,14,53,13.80
2016,04,25,14,54,13.90
2016,04,25,14,55,14.00
2016,04,25,14,56,14.00
2016,04,25,14,57,14.10
2016,04,25,14,58,14.20
2016,04,25,14,59,14.10
2016,04,25,15,00,14.10
2016,04,25,15,01,14.00
2016,04,25,15,02,13.90
2016,04,25,15,03,13.90
2016,04,25,15,04,13.90
2016,04,25,15,05,14.00
2016,04,25,15,06,14.00
2016,04,25,15,07,14.00
2016,04,25,15,08,14.00
2016,04,25,15,09,14.00
2016,04,25,15,10,14.00
2016,04,25,15,11,14.10
2016,04,25,15,12,14.10
2016,04,25,15,13,14.10
2016,04,25,15,14,14.10
2016,04,25,15,15,14.10
2016,04,25,15,16,14.10
2016,04,25,15,17,13.90
2016,04,25,15,18,13.80
2016,04,25,15,19,13.80
2016,04,25,15,20,13.70
2016,04,25,15,21,13.70
2016,04,25,15,22,13.60
2016,04,25,15,23,13.60
2016,04,25,15,24,13.70
2016,04,25,15,25,13.80
2016,04,25,15,26,13.90
2016,04,25,15,27,13.90
2016,04,25,15,28,13.80
2016,04,25,15,29,13.70
2016,04,25,15,30,13.60
2016,04,25,15,31,13.50
2016,04,25,15,32,13.50
2016,04,25,15,33,13.40
2016,04,25,15,34,13.40
2016,04,25,15,35,13.40
2016,04,25,15,36,13.40
2016,04,25,15,37,13.40
2016,04,25,15,38,13.30
2016,04,25,15,39,13.30
2016,04,25,15,40,13.30
2016,04,25,15,41,13.40
2016,04,25,15,42,13.50
2016,04,25,15,43,13.60
2016,04,25,15,44,13.70
2016,04,25,15,45,13.70
2016,04,25,15,46,13.70
2016,04,25,15,47,13.60
2016,04,25,15,48,13.60
2016,04,25,15,49,13.50
2016,04,25,15,50,13.50
2016,04,25,15,51,13.40
2016,04,25,15,52,13.40
2016,04,25,15,53,13.30
2016,04,25,15,54,13.20
2016,04,25,15,55,13.20
2016,04,25,15,56,13.10
2016,04,25,15,57,13.10
2016,04,25,15,58,13.10
2016,04,25,15,59,13.20
2016,04,25,16,00,13.20
2016,04,25,16,01,13.30
2016,04,25,16,02,13.30
2016,04,25,16,03,13.30
2016,04,25,16,04,13.30
2016,04,25,16,05,13.30
2016,04,25,16,06,13.30
2016,04,25,16,07,13.30
2016,04,25,16,08,13.20
2016,04,25,16,09,13.20
2016,04,25,16,10,13.20
2016,04,25,16,11,13.20
2016,04,25,16,12,13.30
2016,04,25,16,13,13.30
2016,04,25,16,14,13.30
2016,04,25,16,15,13.30
2016,04,25,16,16,13.20
2016,04,25,16,17,13.20
2016,04,25,16,18,13.10
2016,04,25,16,19,13.10
2016,04,25,16,20,13.10
2016,04,25,16,21,13.10
2016,04,25,16,22,13.00
2016,04,25,16,23,13.00
2016,04,25,16,24,13.00
2016,04,25,16,25,12.90
2016,04,25,16,26,13.00
2016,04,25,16,27,13.00
2016,04,25,16,28,13.00
2016,04,25,16,29,13.00
2016,04,25,16,30,13.00
2016,04,25,16,31,13.00
2016,04,25,16,32,13.00
2016,04,25,16,33,13.00
2016,04,25,16,34,13.00
2016,04,25,16,35,13.00
2016,04,25,16,36,13.00
2016,04,25,16,37,12.90
2016,04,25,16,38,12.90
2016,04,25,16,39,13.00
2016,04,25,16,40,13.00
2016,04,25,16,41,12.90
2016,04,25,16,42,12.80
2016,04,25,16,43,12.70
2016,04,25,16,44,12.70
2016,04,25,16,45,12.70
2016,04,25,16,46,12.70
2016,04,25,16,47,12.60
2016,04,25,16,48,12.60
2016,04,25,16,49,12.60
2016,04,25,16,50,12.60
2016,04,25,16,51,12.60
2016,04,25,16,52,12.60
2016,04,25,16,53,12.60
2016,04,25,16,54,12.60
2016,04,25,16,55,12.60
2016,04,25,16,56,12.50
2016,04,25,16,57,12.50
2016,04,25,16,58,12.40
2016,04,25,16,59,12.30
2016,04,25,17,00,12.20
2016,04,25,17,01,12.10
2016,04,25,17,02,12.10
2016,04,25,17,03,12.10
2016,04,25,17,04,12.10
2016,04,25,17,05,12.00
2016,04,25,17,06,12.00
2016,04,25,17,07,11.90
2016,04,25,17,08,11.90
2016,04,25,17,09,11.90
2016,04,25,17,10,11.90
2016,04,25,17,11,11.80
2016,04,25,17,12,11.80
2016,04,25,17,13,11.80
2016,04,25,17,14,11.80
2016,04,25,17,15,11.80
2016,04,25,17,16,11.80
2016,04,25,17,17,11.80
2016,04,25,17,18,11.80
2016,04,25,17,19,11.80
2016,04,25,17,20,11.80
2016,04,25,17,21,11.80
2016,04,25,17,22,11.80
2016,04,25,17,23,11.80
2016,04,25,17,24,11.80
2016,04,25,17,25,11.80
2016,04,25,17,26,11.80
2016,04,25,17,27,11.80
2016,04,25,17,28,11.80
2016,04,25,17,29,11.80
2016,04,25,17,30,11.80
2016,04,25,17,31,11.90
2016,04,25,17,32,12.00
2016,04,25,17,33,12.10
2016,04,25,17,34,12.20
2016,04,25,17,35,12.30
2016,04,25,17,36,12.50
2016,04,25,17,37,12.50
2016,04,25,17,38,12.50
2016,04,25,17,39,12.60
2016,04,25,17,40,12.60
2016,04,25,17,41,12.60
2016,04,25,17,42,12.60
2016,04,25,17,43,12.50
2016,04,25,17,44,12.50
2016,04,25,17,45,12.40
2016,04,25,17,46,12.40
2016,04,25,17,47,12.30
2016,04,25,17,48,12.30
2016,04,25,17,49,12.20
2016,04,25,17,50,12.10
2016,04,25,17,51,12.00
2016,04,25,17,52,12.00
2016,04,25,17,53,12.00
2016,04,25,17,54,12.00
2016,04,25,17,55,12.00
2016,04,25,17,56,12.00
2016,04,25,17,57,12.00
2016,04,25,17,58,12.00
2016,04,25,17,59,11.90
2016,04,25,18,00,11.90
2016,04,25,18,01,11.90
2016,04,25,18,02,11.90
2016,04,25,18,03,11.90
2016,04,25,18,04,11.80
2016,04,25,18,05,11.80
2016,04,25,18,06,11.80
2016,04,25,18,07,11.70
2016,04,25,18,08,11.70
2016,04,25,18,09,11.70
2016,04,25,18,10,11.60
2016,04,25,18,11,11.50
2016,04,25,18,12,11.50
2016,04,25,18,13,11.40
2016,04,25,18,14,11.40
2016,04,25,18,15,11.40
2016,04,25,18,16,11.40
2016,04,25,18,17,11.40
2016,04,25,18,18,11.40
2016,04,25,18,19,11.40
2016,04,25,18,20,11.30
2016,04,25,18,21,11.30
2016,04,25,18,22,11.30